Find Starlink 4521

NORAD ID: 53391 Int'l Des: 2022-097 Owner: SPXS Country: US Constellation: starlink operational
LEOCIRCULAR

Live Position

Loading 3D Globe...

About Starlink 4521

Description loading...

Upcoming Passes

Passes for default location (London). Set your location on the main map for personalized predictions.

Altitude History

Loading altitude history...

Two-Line Element Set

1 53391U 22097D 26120.77708540 .00000233 00000-0 32752-4 0 9991
2 53391 53.2173 250.2900 0001307 93.5787 266.5355 15.08837150206538
Epoch: Apr 30, 2026 • Age: 21 hours

Current Status

Altitude 541.1 km
Velocity 7.59 km/s
Sub-Earth Point -2.05°S, 155.75°E
Launch Date Aug 10, 2022
Age 3.7 years
Type internet

Technical Details

Classification Payload
Mass 297.00 kg
Dry Mass 275.00 kg
Total Mass 297.00 kg
Length 0.20 m
Diameter 2.80 m
Span 9.00 m
Shape Box + pan
Manufacturer SPXS
Bus Type Starlink
Phase Status In Orbit
Owner/State SPXS/US

Most Searched